Location: Unspecified
(0.0000°N, 0.0000°E)
Time: 00:29:28
(UTC+02:00)

Delta 168 - Visible Passes

Search period start: 31 May 2015 00:00
Search period end: 10 June 2015 00:00
Orbit: 395 x 2091 km, 25.3° (Epoch: 29 May)

Date Brightness Start Highest point End Pass type
(mag) Time Alt. Az. Time Alt. Az. Time Alt. Az.
31 May 7.1 20:37:23 10° WNW 20:46:57 23° NNW 20:55:18 10° NNE visible
31 May 7.0 22:43:03 10° NW 22:48:30 14° N 22:53:08 10° NNE visible
01 Jun 7.2 20:30:47 10° WNW 20:40:05 22° NNW 20:48:23 10° NNE visible
01 Jun 6.9 22:35:51 10° NW 22:41:52 15° N 22:47:01 10° NNE visible
02 Jun 7.1 00:37:14 10° NNW 00:38:08 12° NNW 00:38:08 12° NNW visible
02 Jun 7.2 20:24:13 10° NW 20:33:15 21° NNW 20:41:29 10° NNE visible
02 Jun 6.9 22:28:36 10° NW 22:35:12 16° N 22:40:55 10° NE visible
03 Jun 7.0 00:29:32 10° NNW 00:31:37 14° NNW 00:31:37 14° NNW visible
03 Jun 7.2 20:17:38 10° NW 20:26:26 20° N 20:34:36 10° NNE visible
03 Jun 6.9 22:21:18 10° NW 22:28:32 18° N 22:34:47 10° NE visible
04 Jun 6.9 00:21:52 10° NW 00:25:03 17° NNW 00:25:03 17° NNW visible
04 Jun 7.2 20:11:02 10° NW 20:19:37 20° N 20:27:46 10° NE visible
04 Jun 6.8 22:13:58 10° NW 22:21:50 19° N 22:28:11 11° NE visible
05 Jun 6.8 00:14:15 10° NW 00:18:27 21° NNW 00:18:27 21° NNW visible
05 Jun 7.3 20:04:26 10° NW 20:12:49 20° N 20:20:58 10° NE visible
05 Jun 6.8 22:06:35 10° NW 22:15:05 21° N 22:21:33 12° NE visible
06 Jun 6.6 00:06:39 10° NW 00:11:49 24° NNW 00:11:49 24° NNW visible
06 Jun 6.7 21:59:13 10° NW 22:08:19 23° N 22:14:53 14° NE visible
06 Jun 6.5 23:59:05 10° NW 00:05:09 28° NNW 00:05:09 28° NNW visible
07 Jun 6.7 21:51:50 10° NW 22:01:30 25° NNE 22:08:13 15° NE visible
07 Jun 6.3 23:51:32 10° NW 23:58:28 33° NNW 23:58:28 33° NNW visible
08 Jun 6.6 21:44:26 10° NW 21:54:38 28° NNE 22:01:32 16° ENE visible
08 Jun 6.2 23:44:01 10° NW 23:51:47 38° NNW 23:51:47 38° NNW visible
09 Jun 6.6 21:37:03 10° NW 21:47:43 30° NNE 21:54:51 17° ENE visible
